Back to catalog

STARLINK-35787

AliveCommunicationsVLEO
NORAD 66978·PAYLOAD·🇺🇸 United States

Launched Dec 8, 2025 from Cape Canaveral Space Force Station

Loading…

Next Passes (next 24 hours)

TLE

FreshSource: CelesTrak SupGP

Epoch: Sep 15, 2026, 03:49 UTC

1 66978C 25288V   26258.15951389  .00003313  00000+0  11999-3 0  2584
2 66978  43.0011  33.1497 0001568 267.7828 234.3770 15.27575440    11

Track STARLINK-35787 in real time with AllMySat

Download on the App Store